Weather History for KBAD - December, 2012

Change the Weather History Date:

Wednesday, December 5, 2012

  Actual Average Record
Temperature  
Mean Temperature 59 °F -  
Max Temperature 63 °F 57 °F 77 °F (1998)
Min Temperature 55 °F 39 °F 21 °F (2006)
Degree Days  
Heating Degree Days 6    
Growing Degree Days 9 (Base 50)    
Moisture  
Dew Point 55 °F    
Average Humidity 88    
Maximum Humidity 100    
Minimum Humidity 67    
Precipitation  
Precipitation 0.00 in - - ()
Sea Level Pressure  
Sea Level Pressure 30.17 in    
Wind  
Wind Speed 6 mph (NE)    
Max Wind Speed 12 mph    
Max Gust Speed -    
Visibility 10 miles    
Events      
Averages and records for this station are not official NWS values.
T = Trace of Precipitation, MM = Missing Value Source: NWS Daily Summary

Daily Weather History Graph

Daily Weather History Graph

Search for Another Location

Airport or City:

Trip Planner

Search our weather history database for the weather conditions in past years. The results will help you decide how hot, cold, wet, or windy it might be!

Date:

Astronomy

Dec. 05, 2012 Rise Set
Actual Time 7:02 AM CST 5:08 PM CST
Civil Twilight 6:35 AM CST 5:35 PM CST
Nautical Twilight 6:04 AM CST 6:06 PM CST
Astronomical Twilight 5:34 AM CST 6:36 PM CST
Moon 11:42 PM CST (12/5) 11:41 AM CST (12/5)
Length of Visible Light 11h 00m
Length of Day
10h 06m
Waning Gibbous, 59% of the Moon is Illuminated
Dec 5
Waning Gibbous
Dec 6
Last Quarter
Dec 13
New
Dec 19
First Quarter
Dec 28
Full

Hourly Weather History & Observations

Time (CST) Temp. Dew Point Humidity Pressure Visibility Wind Dir Wind Speed Gust Speed Precip Events Conditions
12:05 AM 60.8 °F 60.8 °F 100% 30.18 in 8.0 mi NE 8.1 mph - N/A   Light Drizzle
12:55 AM 60.1 °F 60.1 °F 100% 30.19 in 10.0 mi NE 5.8 mph - 0.00 in   Mostly Cloudy
1:20 AM 60.8 °F 60.8 °F 100% 30.20 in 6.0 mi NNE 4.6 mph - N/A   Light Drizzle
1:55 AM 59.5 °F 59.5 °F 100% 30.20 in 6.0 mi NNE 4.6 mph - 0.00 in   Mostly Cloudy
2:55 AM 59.4 °F 59.4 °F 100% 30.20 in 10.0 mi NE 4.6 mph - N/A   Mostly Cloudy
3:40 AM 59.0 °F 59.0 °F 100% 30.20 in 10.0 mi NNE 5.8 mph - N/A   Overcast
3:55 AM 58.1 °F 58.1 °F 100% 30.20 in 10.0 mi North 11.5 mph - N/A   Overcast
4:55 AM 57.0 °F 57.0 °F 100% 30.20 in 10.0 mi NE 9.2 mph - N/A   Overcast
5:55 AM 55.8 °F 55.8 °F 100% 30.21 in 10.0 mi Variable 6.9 mph - N/A   Overcast
6:55 AM 55.4 °F 55.0 °F 99% 30.24 in 10.0 mi NNE 6.9 mph - N/A   Overcast
8:55 AM 55.0 °F 53.6 °F 95% 30.25 in 10.0 mi North 5.8 mph - N/A   Overcast
9:55 AM 55.4 °F 53.4 °F 93% 30.25 in 10.0 mi NNE 5.8 mph - N/A   Overcast
10:32 AM 57.2 °F 53.6 °F 88% 30.25 in 10.0 mi NE 4.6 mph - N/A   Overcast
10:55 AM 56.7 °F 52.5 °F 86% 30.24 in 10.0 mi North 6.9 mph - N/A   Overcast
11:20 AM 57.2 °F 53.6 °F 88% 30.22 in 10.0 mi Variable 4.6 mph - N/A   Overcast
11:55 AM 59.2 °F 52.5 °F 79% 30.21 in 10.0 mi NE 6.9 mph - N/A   Overcast
12:55 PM 61.2 °F 52.5 °F 73% 30.18 in 10.0 mi NE 5.8 mph - N/A   Overcast
1:07 PM 60.8 °F 51.8 °F 72% 30.18 in 10.0 mi NNE 5.8 mph - N/A   Mostly Cloudy
1:55 PM 63.9 °F 52.7 °F 67% 30.14 in 10.0 mi Calm Calm - N/A   Mostly Cloudy
2:55 PM 63.7 °F 53.1 °F 68% 30.13 in 10.0 mi Variable 4.6 mph - N/A   Mostly Cloudy
3:39 PM 62.6 °F 53.6 °F 72% 30.13 in 10.0 mi Variable 4.6 mph - N/A   Overcast
3:55 PM 62.1 °F 54.0 °F 75% 30.13 in 10.0 mi East 4.6 mph - N/A   Overcast
4:55 PM 60.6 °F 53.6 °F 78% 30.13 in 10.0 mi ENE 3.5 mph - N/A   Overcast
5:55 PM 59.7 °F 54.0 °F 81% 30.13 in 10.0 mi Calm Calm - N/A   Overcast
6:55 PM 59.4 °F 54.3 °F 83% 30.13 in 10.0 mi Calm Calm - N/A   Overcast
7:55 PM 58.3 °F 54.5 °F 87% 30.14 in 10.0 mi East 3.5 mph - N/A   Mostly Cloudy
8:27 PM 57.2 °F 53.6 °F 88% 30.13 in 10.0 mi Calm Calm - N/A   Overcast
8:55 PM 56.5 °F 54.1 °F 92% 30.13 in 10.0 mi Calm Calm - N/A   Overcast
9:09 PM 57.2 °F 53.6 °F 88% 30.13 in 10.0 mi East 4.6 mph - N/A   Overcast
9:55 PM 55.8 °F 53.2 °F 91% 30.11 in 10.0 mi ESE 3.5 mph - N/A   Overcast
10:55 PM 55.4 °F 52.2 °F 89% 30.10 in 10.0 mi Calm Calm - N/A   Overcast
11:55 PM 55.0 °F 52.7 °F 92% 30.09 in 10.0 mi SSE 6.9 mph - N/A   Overcast